Location: *
(41.7492°S, 135.4150°W)
Time: 23:09:54
(UTC+00:00)

METEOR M2 - Pass Details

Date: 09 July 2022
Orbit: 818 x 827 km, 98.4° (Epoch: 17 August)

Event Time Altitude Azimuth Distance (km) Brightness Sun altitude
Exits shadow 03:31:06 33° 121° (ESE) 1,373 ? -19.0°
Maximum altitude 03:32:43 41° 82° (E) 1,193 ? -19.3°
Drops below altitude 10° 03:37:46 10° 12° (NNE) 2,425 ? -20.2°
Sets 03:40:14 0° 5° (N) 3,351 ? -20.7°
